Flag for Switzerland Weather past 2 weeks in Riehen, Basel-Stadt, Switzerland

Now
49 °F

Overcast.


Feels Like: 43 °F
Forecast: 35 / 51 °F
Wind: 13 mph from West

Location: Bale-Mulhouse

Current Time: Oct 22, 2014 at 2:07:32 AM

Latest Report: Oct 22, 2014 at 1:00 AM


Visibility: 34 mi

Pressure: 30.10 "Hg

Humidity: 80%

Dew point: 43 °F

Location of RiehenLocation

Historic Weather in Riehen — Graph

°F

Riehen temperature yesterday

Maximum temperature yesterday: 66 °F (at 3:00 PM)
Minimum temperature yesterday: 50 °F (at 11:00 PM)
Average temperature yesterday: 60 °F

Past Weeks' High & Low Weather Summary

 TemperatureHumidityPressure
High76 °F (Oct 19, 4:00 PM)99% (Oct 12, 7:00 AM)30.22 "Hg (Oct 12, 7:00 AM)
Low47 °F (Oct 22, 12:00 AM)50% (Oct 19, 4:00 PM)29.74 "Hg (Oct 15, 5:00 PM)
Average60 °F87%29.94 "Hg
* Reported Midnight between Oct 6 and Oct 7 — Midnight between Oct 21 and Oct 22, Riehen, Weather by CustomWeather, © 2014

Note: Actual official high and low records may vary slightly from our data, if they occured in-between our weather recording intervals... More about our weather records

Advertising

Riehen weather history for previous 24 hours

 ConditionsComfort  
Time TempWeatherWind HumidityBarometerVisibility
12:00 AM
Oct 22
47 °FOvercast.8 mph81%30.10 "Hg31 mi
11:00 PM
Oct 21
50 °FThundershowers. Overcast.10 mph78%30.08 "Hg11 mi
10:00 PM50 °FPassing clouds.15 mph75%30.02 "Hg31 mi
9:00 PM51 °FPassing clouds.14 mph80%29.96 "Hg25 mi
8:00 PM52 °FThunderstorms. Overcast.13 mph83%29.90 "Hg19 mi
7:00 PM60 °FThunderstorms. Overcast.21 mph82%29.76 "Hg12 mi
6:00 PM64 °FSprinkles. Partly sunny.21 mph66%29.74 "Hg12 mi
5:00 PM65 °FPartly sunny.14 mph64%29.78 "Hg16 mi
4:00 PM66 °FPartly sunny.18 mph59%29.83 "Hg25 mi
3:00 PM66 °FPartly sunny.16 mph54%29.87 "Hg25 mi
2:00 PM65 °FPartly sunny.18 mph54%29.91 "Hg25 mi
1:00 PM64 °FOvercast.12 mph75%29.93 "Hg16 mi
12:00 PM66 °FPartly sunny.9 mph69%29.95 "Hg25 mi
11:00 AM64 °FPartly sunny.7 mph77%29.96 "Hg22 mi
10:00 AM61 °FOvercast.3 mph87%29.98 "Hg16 mi
9:00 AM59 °FOvercast.5 mph92%29.99 "Hg16 mi
8:00 AM58 °FOvercast.6 mph92%29.98 "Hg16 mi
7:00 AM58 °FOvercast.9 mph93%29.98 "Hg28 mi
6:00 AM59 °FOvercast.7 mph91%29.98 "Hg9 mi
5:00 AM59 °FOvercast.7 mph91%30.00 "Hg12 mi
4:00 AM60 °FOvercast.7 mph92%30.01 "Hg37 mi
3:00 AM60 °FOvercast.5 mph94%30.03 "Hg31 mi
2:00 AM60 °FOvercast.2 mph95%30.03 "Hg31 mi
Weather by CustomWeather, © 2014

See weather overviewHow to use our weather pages